User: anonymous   Login
Location: Cheyres
(46.8153°N, 6.7877°E)
Time: 08:40:22
(UTC+00:00)
Language:

Cosmos 2151 - Orbit

View from above orbital plane
View from above orbital plane
View from above satellite
View from above satellite

Ground track
Ground track

The orbit data is extracted from the following two-line orbital elements,

1 21422U 91042A   22330.80369190  .00000856  00000-0  79714-4 0  9994
2 21422  82.4986 153.0329 0015006 126.6540 233.6063 14.93007479683902
Epoch (UTC): 26 November 2022 19:17:18
Eccentricity: 0.0015006
inclination: 82.4986°
perigee height: 578 km
apogee height: 599 km
right ascension of ascending node: 153.0329°
argument of perigee: 126.6540°
revolutions per day: 14.93007479
mean anomaly at epoch: 233.6063°
orbit number at epoch: 68390

The dashed part of the orbit path shows where the satellite is in the earth's shadow,  

DLR